User: anonymous   Login
Location: Peebles
(55.6412°N, 3.1714°W)
Time: 04:38:37
(UTC+01:00)
Language:

NOAA 17 - Orbit

View from above orbital plane
View from above orbital plane
View from above satellite
View from above satellite

Ground track
Ground track

The orbit data is extracted from the following two-line orbital elements,

1 27453U 02032A   24194.54598226  .00000320  00000-0  15385-3 0  9999
2 27453  98.7637 145.1249 0010708 232.1202 127.9009 14.25611530146565
Epoch (UTC): 12 July 2024 13:06:12
Eccentricity: 0.0010708
inclination: 98.7637°
perigee height: 799 km
apogee height: 814 km
right ascension of ascending node: 145.1249°
argument of perigee: 232.1202°
revolutions per day: 14.25611530
mean anomaly at epoch: 127.9009°
orbit number at epoch: 14656

The dashed part of the orbit path shows where the satellite is in the earth's shadow,  

DLR